Regional Weather Roundup
Issued by NWS

Home | Current Version | Previous Version | Graphics & Text | Print | Product List | Glossary On
Versions: 1 2 3 4 5 6 7 8 9 10 11 12 13 14 15 16 17 18 19 20 21 22 23 24 25 26 27 28 29 30 31 32 33 34 35 36 37 38 39 40 41 42 43 44 45 46 47 48 49 50
000
ASUS43 KLSX 250159
RWRMO

WEATHER SUMMARY FOR MISSOURI
NATIONAL WEATHER SERVICE SPRINGFIELD MO
900 PM CDT FRI APR 24 2015

NOTE: "FAIR" INDICATES FEW OR NO CLOUDS BELOW 12,000 FEET WITH NO
       SIGNIFICANT WEATHER AND/OR OBSTRUCTIONS TO VISIBILITY.
       CURRENT SKY AND/OR WEATHER CONDITIONS ARE NOT AVAILABLE FOR
       CHILLICOTHE AND FARMINGTON.

MOZ001>031-035>038-043-044-053-054-250300-
...NORTHERN AND WESTERN MISSOURI...

CITY           SKY/WX    TMP DP  RH WIND       PRES   REMARKS
KANSAS CTY INT LGT RAIN  63  55  75 SE16      29.57F
KANSAS C DTWN  CLOUDY    65  54  67 SE10      29.55F
LEE`S SUMMIT   CLOUDY    63  53  70 SE10      29.58F
ST JOSEPH      CLOUDY    61  54  77 E6        29.59S
CHILLICOTHE      N/A     61  54  77 SE5       29.64F
KIRKSVILLE     CLOUDY    60  50  69 SE12      29.67F

$$
MOZ066>068-077>081-088>096-101>105-250300-
...SOUTHWEST MISSOURI...

CITY           SKY/WX    TMP DP  RH WIND       PRES   REMARKS
SPRINGFIELD    CLOUDY    57  54  89 SE16      29.67F
JOPLIN         CLOUDY    63  56  78 SE13      29.59F

$$
MOZ032>034-039>042-045>050-055>058-069>072-250300-
...CENTRAL MISSOURI...

CITY           SKY/WX    TMP DP  RH WIND       PRES   REMARKS
COLUMBIA       PTCLDY    57  49  74 SE10      29.69F
JEFFERSON CITY MOCLDY    58  49  72 SE12      29.69F
ROLLA          CLOUDY    53  49  86 S20       29.71F
SEDALIA        MOCLDY    59  51  75 SE9       29.65F
OSAGE BEACH    CLOUDY    57  48  72 SE7G16    29.68F

$$
MOZ051-052-059>065-250300-
...EAST CENTRAL MISSOURI...

CITY           SKY/WX    TMP DP  RH WIND       PRES   REMARKS
ST LOUIS INTL  CLOUDY    58  44  60 SE12G20   29.79S
SPIRIT OF STL  CLOUDY    56  45  66 S9        29.77S
ST CHARLES     CLOUDY    57  45  64 S9        29.77S

$$
MOZ072>076-082>087-097>100-106>115-250300-
...SOUTH CENTRAL AND SOUTHEAST MISSOURI...

CITY           SKY/WX    TMP DP  RH WIND       PRES   REMARKS
CAPE GIRARDEAU CLOUDY    57  45  64 SE6       29.83S
FARMINGTON     CLOUDY    54  45  71 S6        29.83R
POPLAR BLUFF   CLOUDY    56  49  77 S13       29.80F
WEST PLAINS    CLOUDY    52  50  93 S13G22    29.76F FOG

$$



USA.gov is the U.S. government's official web portal to all federal, state and local government web resources and services.